STARLINK-34618, 64770

Orbit data source: Space-Track

STARLINK-34618, 64770 is a payload satellite owned by SpaceX/Seattle (US) in LEO that was launched on Tue, 08 Jul 2025 UTC via an FALCON 9 launch vehicle from the Air Force Eastern Test Range (AFETR). Payload-class satellites include a variety of spacecraft equipped with specific instruments for various scientific and technological missions. These include communications satellites like Starlink; space stations such as the ISS; scientific satellites like the Hubble; Earth observation satellites from companies like Planet Labs, Umbra, and HawkEye 360; GPS; miniature CubeSats for education and research; and military/defense satellites.

Loading next visibility...
Identifier
64770, 2025-147R
Orbit
LEO
Country
Flag of USUS
Related business
Manufacturer
SpaceX/Seattle
Mission
Operational spacecraft
Bus & Motor
STARLINK V2MO, Unknown motor
Mass
575 kg wet, ~530 kg dry
Launch date (UTC)
2025-07-08 (2 months ago)
Launch vehicle
FALCON 9
Launch site
Air Force Eastern Test Range (AFETR)
Object type
Payload
Rocket body
Debris
Shape & HBR
Unknown
Radar Cross Section
Large (>1 m²)

Expand to show TLE details & history
Last TLE update: 13 hours ago

TLE from 13 hours ago
0 STARLINK-34618
1 64770U 25147R   25243.18960656  .00059407  00000-0  14824-2 0  9996
2 64770  53.1616  49.1518 0001008  73.9934 286.1182 15.39644885  9493
Epoch: 2025-08-31T04:33Z
TLE epoch observation values (Epoch: 2025-08-31T04:33:02.006Z)
Latitude
-0.00003°
Longitude
1.28031°
Altitude
447.871 km
Speed
7.645 km/s
True Right ascension
03h 16m 36s
True Declination
0° 00' 00"
Sunlit
Object was in daylight at epoch
Visualization orbit readout
Latitude
Unknown
Longitude
Unknown
Altitude
Unknown
Speed
Unknown
Apparent Right ascension
Unknown
Apparent Declination
Unknown
Sunlit
N/A
Visualization observer readout
Local Sidereal Time
08:44:28
Azimuth
Unknown
Elevation
Unknown
Doppler factor
Unknown
Orbital elements
Apogee altitude
448.104 km
Perigee altitude
446.728 km
Semi-major axis
6,825.553 km
Eccentricity
0.0001
Inclination
53.1616°
RAAN
49.1518°
Arg. of periapsis
73.9934°
True anomaly
286.1071°
Mean anomaly
286.1182°
Eccentric anomaly
286.11265°
Mean motion
3.8489 °/min
Orbital period
93.53 mins
BSTAR
0.0014824
Loading maneuver chart data...
Computing Atmospheric mass density...
Loading historical data...
Loading historical data...
Loading historical data...
Loading historical data...
Loading historical data...
Loading historical data...
Loading historical data...

Documentation

Showing up to 5 results
|